EW5660 Weather Reports


time (UTC)temp
F
wind
direction
speed
knots
gust
knots
rain 1hr
in
rain 24hr
in
rain mn
in
humidity
%
barometer
mb
20260507010419 51 263 2.6 6.1 0.00 0.00 0.00 44 1012.3
20260507010300 51 270 2.6 6.1 0.00 0.00 0.00 44 1012.3
20260507010139 51 257 1.7 6.1 0.00 0.00 0.00 45 1012.3
20260507010016 51 263 3.5 6.1 0.00 0.00 0.00 44 1012.3
20260507005854 51 281 2.6 7.0 0.00 0.00 0.00 44 1012.3
20260507005713 51 248 2.6 7.0 0.00 0.00 0.00 44 1012.3
20260507005552 51 272 2.6 7.0 0.00 0.00 0.00 44 1012.3
20260507005428 51 265 1.7 7.0 0.00 0.00 0.00 44 1012.3
20260507005306 51 273 1.7 7.0 0.00 0.00 0.00 44 1012.4
20260507005148 51 253 3.5 7.0 0.00 0.00 0.00 44 1012.4
20260507005025 51 265 0.9 6.1 0.00 0.00 0.00 44 1012.4
20260507004844 51 271 2.6 6.1 0.00 0.00 0.00 44 1012.4
20260507004723 51 281 1.7 6.1 0.00 0.00 0.00 44 1012.4
20260507004604 51 270 2.6 6.1 0.00 0.00 0.00 44 1012.4
20260507004442 51 265 3.5 6.1 0.00 0.00 0.00 44 1012.4
20260507004319 51 273 3.5 6.1 0.00 0.00 0.00 44 1012.4
20260507004136 51 271 0.9 5.2 0.00 0.00 0.00 44 1012.3
20260507004019 51 267 1.7 5.2 0.00 0.00 0.00 44 1012.3
20260507003834 51 287 3.5 6.1 0.00 0.00 0.00 44 1012.3
20260507003711 51 307 2.6 6.1 0.00 0.00 0.00 44 1012.3
20260507003548 51 287 1.7 6.1 0.00 0.00 0.00 44 1012.3
20260507003426 51 272 2.6 7.0 0.00 0.00 0.00 44 1012.3
20260507003247 51 292 4.3 7.0 0.00 0.00 0.00 44 1012.2
20260507003126 51 281 3.5 7.0 0.00 0.00 0.00 44 1012.2
20260507003004 51 300 2.6 7.0 0.00 0.00 0.00 44 1012.3
20260507002844 51 293 4.3 7.0 0.00 0.00 0.00 43 1012.2
20260507002725 51 292 4.3 7.0 0.00 0.00 0.00 44 1012.2
20260507002543 51 273 3.5 7.0 0.00 0.00 0.00 44 1012.2
20260507002420 51 279 3.5 6.1 0.00 0.00 0.00 44 1012.2
20260507002240 51 271 2.6 6.1 0.00 0.00 0.00 44 1012.1
20260507002123 51 310 3.5 6.1 0.00 0.00 0.00 44 1012.1
20260507002000 51 306 4.3 6.1 0.00 0.00 0.00 44 1012.1
20260507001837 51 305 3.5 6.1 0.00 0.00 0.00 44 1012.1
20260507001715 51 306 2.6 5.2 0.00 0.00 0.00 44 1012.1
20260507001556 51 274 2.6 5.2 0.00 0.00 0.00 44 1012.1
20260507001417 51 288 1.7 5.2 0.00 0.00 0.00 45 1012.1
20260507001255 51 306 2.6 5.2 0.00 0.00 0.00 44 1012.1
20260507001133 51 285 1.7 6.1 0.00 0.00 0.00 45 1012.0
20260507001010 51 299 1.7 7.8 0.00 0.00 0.00 44 1012.0
20260507000831 51 286 2.6 7.8 0.00 0.00 0.00 44 1012.0
20260507000708 51 304 1.7 7.8 0.00 0.00 0.00 44 1012.0
20260507000547 51 279 0.9 7.8 0.00 0.00 0.00 44 1012.0
20260507000427 51 302 3.5 7.8 0.00 0.00 0.00 44 1012.0
20260507000307 51 328 4.3 7.8 0.00 0.00 0.00 43 1012.0
20260507000145 51 207 5.2 7.8 0.00 0.00 0.00 43 1012.0
20260507000023 52 298 5.2 7.8 0.00 0.00 0.00 43 1012.0
20260506235901 52 279 3.5 6.1 0.00 0.00 0.00 43 1012.0
20260506235740 52 310 1.7 6.1 0.00 0.00 0.00 44 1012.0
20260506235622 52 242 1.7 6.1 0.00 0.00 0.00 44 1012.0
20260506235503 52 259 2.6 6.1 0.00 0.00 0.00 43 1012.0
20260506235339 52 250 2.6 6.1 0.00 0.00 0.00 44 1012.0
20260506235217 52 271 1.7 6.1 0.00 0.00 0.00 43 1012.1
20260506235038 52 287 2.6 6.1 0.00 0.00 0.00 43 1012.0
20260506234915 52 263 2.6 6.1 0.00 0.00 0.00 43 1012.1
20260506234753 52 304 3.5 6.1 0.00 0.00 0.00 43 1012.0
20260506234631 52 286 3.5 6.1 0.00 0.00 0.00 43 1012.0
20260506234509 52 261 4.3 6.1 0.00 0.00 0.00 43 1012.0
20260506234347 52 277 4.3 7.8 0.00 0.00 0.00 43 1012.0
20260506234225 52 319 4.3 7.8 0.00 0.00 0.00 43 1011.9
20260506234105 52 261 3.5 7.8 0.00 0.00 0.00 44 1011.9
20260506233942 52 273 4.3 8.7 0.00 0.00 0.00 44 1011.9
20260506233823 52 304 4.3 8.7 0.00 0.00 0.00 44 1011.9
20260506233703 52 317 5.2 8.7 0.00 0.00 0.00 44 1011.9
20260506233520 52 289 6.1 8.7 0.00 0.00 0.00 43 1012.0
20260506233400 52 239 5.2 8.7 0.00 0.00 0.00 43 1011.9
20260506233218 52 259 3.5 7.8 0.00 0.00 0.00 44 1011.9
20260506233035 52 275 3.5 7.8 0.00 0.00 0.00 43 1011.9
20260506232912 52 284 4.3 7.8 0.00 0.00 0.00 44 1011.9
20260506232750 52 258 4.3 7.8 0.00 0.00 0.00 43 1011.9
20260506232631 52 292 3.5 7.8 0.00 0.00 0.00 43 1011.9
20260506232508 52 277 3.5 7.0 0.00 0.00 0.00 43 1011.9
20260506232346 52 322 2.6 7.0 0.00 0.00 0.00 44 1011.9
20260506232226 52 300 1.7 8.7 0.00 0.00 0.00 43 1011.9
20260506232106 52 299 2.6 8.7 0.00 0.00 0.00 43 1011.9
20260506231949 52 297 3.5 8.7 0.00 0.00 0.00 43 1011.9
20260506231829 52 266 2.6 8.7 0.00 0.00 0.00 43 1011.9
20260506231647 52 259 3.5 8.7 0.00 0.00 0.00 43 1011.9
20260506231525 52 263 4.3 9.6 0.00 0.00 0.00 43 1011.9
20260506231407 52 271 4.3 11.3 0.00 0.00 0.00 43 1011.9
20260506231247 52 286 4.3 11.3 0.00 0.00 0.00 44 1011.9
20260506231124 52 273 6.1 11.3 0.00 0.00 0.00 43 1011.9
20260506230941 52 284 4.3 11.3 0.00 0.00 0.00 44 1011.8
20260506230823 52 324 6.1 11.3 0.00 0.00 0.00 43 1011.8
20260506230701 52 302 5.2 11.3 0.00 0.00 0.00 44 1011.8
20260506230541 52 315 2.6 8.7 0.00 0.00 0.00 44 1011.9
20260506230419 52 290 4.3 8.7 0.00 0.00 0.00 44 1011.9
20260506230234 52 283 7.0 8.7 0.00 0.00 0.00 43 1011.8
20260506230054 52 283 6.1 8.7 0.00 0.00 0.00 44 1011.8
20260506225930 52 277 4.3 8.7 0.00 0.00 0.00 44 1011.8
20260506225807 52 304 3.5 8.7 0.00 0.00 0.00 44 1011.8
20260506225646 52 294 5.2 8.7 0.00 0.00 0.00 43 1011.8
20260506225528 52 302 6.1 8.7 0.00 0.00 0.00 43 1011.9
20260506225348 52 284 4.3 8.7 0.00 0.00 0.00 45 1011.9
20260506225225 53 328 1.7 5.2 0.00 0.00 0.00 46 1011.9
20260506225107 52 268 2.6 4.3 0.00 0.00 0.00 44 1011.8
20260506224948 52 243 1.7 4.3 0.00 0.00 0.00 44 1011.8
20260506224825 52 261 1.7 4.3 0.00 0.00 0.00 44 1011.9
20260506224703 52 281 1.7 4.3 0.00 0.00 0.00 44 1011.8
20260506224520 52 267 0.9 4.3 0.00 0.00 0.00 45 1011.8
20260506224401 52 259 1.7 4.3 0.00 0.00 0.00 44 1011.8
20260506224222 52 324 0.9 4.3 0.00 0.00 0.00 44 1011.8
20260506224101 52 322 1.7 5.2 0.00 0.00 0.00 45 1011.8
20260506223939 52 300 0.9 6.1 0.00 0.00 0.00 44 1011.7
20260506223816 52 284 1.7 7.0 0.00 0.00 0.00 44 1011.7
20260506223620 52 290 2.6 7.0 0.00 0.00 0.00 44 1011.7
20260506223440 52 299 2.6 7.0 0.00 0.00 0.00 44 1011.8
20260506223320 52 286 3.5 7.0 0.00 0.00 0.00 43 1011.8
20260506223159 52 291 4.3 7.8 0.00 0.00 0.00 43 1011.8
20260506223025 52 281 5.2 7.8 0.00 0.00 0.00 43 1011.9
20260506222905 52 276 5.2 7.8 0.00 0.00 0.00 43 1011.9
20260506222742 52 292 4.3 7.8 0.00 0.00 0.00 43 1011.9
20260506222559 52 284 3.5 7.8 0.00 0.00 0.00 44 1011.9
20260506222423 52 286 2.6 7.8 0.00 0.00 0.00 44 1011.9
20260506222239 52 292 2.6 9.6 0.00 0.00 0.00 44 1011.9
20260506222118 52 290 1.7 10.4 0.00 0.00 0.00 44 1011.9
20260506222000 52 308 2.6 10.4 0.00 0.00 0.00 43 1011.9
20260506221843 52 306 3.5 10.4 0.00 0.00 0.00 43 1011.9
20260506221702 52 305 4.3 10.4 0.00 0.00 0.00 43 1011.9
20260506221538 52 273 6.1 10.4 0.00 0.00 0.00 43 1011.9
20260506221416 52 292 7.0 13.0 0.00 0.00 0.00 43 1012.0
20260506221259 52 310 7.0 13.0 0.00 0.00 0.00 43 1012.0
20260506221139 52 283 6.1 13.0 0.00 0.00 0.00 43 1012.0
20260506221015 52 298 6.1 13.0 0.00 0.00 0.00 43 1012.0
20260506220855 52 322 6.1 13.0 0.00 0.00 0.00 43 1012.0
20260506220733 52 325 7.0 13.0 0.00 0.00 0.00 44 1011.9
20260506220555 53 314 4.3 9.6 0.00 0.00 0.00 44 1012.0
20260506220432 53 309 4.3 6.1 0.00 0.00 0.00 44 1012.0
20260506220251 52 272 4.3 6.1 0.00 0.00 0.00 44 1011.9
20260506220130 52 277 0.9 6.1 0.00 0.00 0.00 45 1011.9
20260506215950 52 240 0.9 7.0 0.00 0.00 0.00 46 1011.9
20260506215830 52 355 0.0 7.0 0.00 0.00 0.00 46 1011.9
20260506215709 52 360 0.9 7.0 0.00 0.00 0.00 44 1011.9
20260506215547 52 331 3.5 7.0 0.00 0.00 0.00 44 1011.9
20260506215411 52 313 2.6 7.0 0.00 0.00 0.00 45 1011.8
20260506215250 52 317 3.5 7.0 0.00 0.00 0.00 44 1011.9
20260506215127 52 302 2.6 7.0 0.00 0.00 0.00 45 1011.9
20260506214945 52 267 2.6 7.0 0.00 0.00 0.00 44 1011.8
20260506214806 52 292 3.5 7.8 0.00 0.00 0.00 44 1011.9
20260506214645 52 257 4.3 7.8 0.00 0.00 0.00 44 1011.8
20260506214520 52 235 3.5 7.8 0.00 0.00 0.00 46 1011.8
20260506214358 52 257 2.6 7.8 0.00 0.00 0.00 47 1011.9
20260506214239 52 309 3.5 7.8 0.00 0.00 0.00 46 1011.9
20260506214119 52 305 5.2 7.8 0.00 0.00 0.00 45 1011.8
20260506213957 52 284 3.5 7.8 0.00 0.00 0.00 46 1011.8
20260506213834 52 286 3.5 7.8 0.00 0.00 0.00 46 1011.8
20260506213714 52 275 4.3 7.8 0.00 0.00 0.00 46 1011.8
20260506213556 52 309 4.3 10.4 0.00 0.00 0.00 46 1011.8
20260506213433 52 289 5.2 10.4 0.00 0.00 0.00 46 1011.8
20260506213314 52 292 5.2 10.4 0.00 0.00 0.00 46 1011.8
20260506213153 52 298 1.7 10.4 0.00 0.00 0.00 47 1011.8
20260506213034 52 330 1.7 10.4 0.00 0.00 0.00 46 1011.9
20260506212912 52 304 4.3 10.4 0.00 0.00 0.00 45 1011.8
20260506212750 52 296 6.1 10.4 0.00 0.00 0.00 45 1011.9
20260506212627 52 293 7.0 9.6 0.00 0.00 0.00 45 1011.8
20260506212446 52 289 5.2 9.6 0.00 0.00 0.00 46 1011.8
20260506212307 52 311 3.5 7.8 0.00 0.00 0.00 46 1011.8
20260506212143 52 299 5.2 8.7 0.00 0.00 0.00 46 1011.8
20260506212000 52 296 5.2 8.7 0.00 0.00 0.00 47 1011.9
20260506211837 52 282 3.5 8.7 0.00 0.00 0.00 47 1011.8
20260506211701 52 281 4.3 9.6 0.00 0.00 0.00 46 1011.8
20260506211538 52 274 4.3 9.6 0.00 0.00 0.00 46 1011.8
20260506211415 52 289 6.1 9.6 0.00 0.00 0.00 46 1011.9
20260506211256 52 298 5.2 9.6 0.00 0.00 0.00 46 1011.9
20260506211137 52 288 5.2 9.6 0.00 0.00 0.00 45 1011.9
20260506210957 52 273 7.8 9.6 0.00 0.00 0.00 45 1011.9
20260506210836 52 295 6.1 9.6 0.00 0.00 0.00 47 1011.9
20260506210714 52 255 6.1 9.6 0.00 0.00 0.00 46 1011.9
20260506210538 52 245 5.2 9.6 0.00 0.00 0.00 46 1011.8
20260506210415 52 291 4.3 9.6 0.00 0.00 0.00 46 1011.9
20260506210254 52 300 4.3 9.6 0.00 0.00 0.00 46 1011.9
20260506210132 52 293 7.0 9.6 0.00 0.00 0.00 45 1011.9
20260506205952 52 284 7.0 9.6 0.00 0.00 0.00 46 1011.9
20260506205831 52 283 6.1 9.6 0.00 0.00 0.00 46 1011.9
20260506205710 52 236 4.3 8.7 0.00 0.00 0.00 46 1011.9
20260506205549 52 268 5.2 8.7 0.00 0.00 0.00 46 1011.9
20260506205428 52 294 5.2 8.7 0.00 0.00 0.00 45 1011.9
20260506205310 52 290 4.3 10.4 0.00 0.00 0.00 47 1011.9
20260506205148 52 291 5.2 10.4 0.00 0.00 0.00 45 1011.9
20260506205025 52 301 5.2 10.4 0.00 0.00 0.00 46 1011.9
20260506204904 52 281 4.3 10.4 0.00 0.00 0.00 46 1011.9
20260506204728 52 317 4.3 10.4 0.00 0.00 0.00 45 1011.9
20260506204606 52 327 6.1 10.4 0.00 0.00 0.00 45 1011.9
20260506204443 52 332 2.6 7.8 0.00 0.00 0.00 47 1011.9
20260506204321 52 265 3.5 7.8 0.00 0.00 0.00 47 1012.0
20260506204203 52 253 4.3 7.0 0.00 0.00 0.00 46 1011.9
20260506204021 52 239 4.3 7.0 0.00 0.00 0.00 47 1011.9
20260506203859 52 285 2.6 6.1 0.00 0.00 0.00 47 1011.9
20260506203736 52 262 2.6 7.0 0.00 0.00 0.00 47 1012.0
20260506203556 52 276 3.5 7.0 0.00 0.00 0.00 46 1011.9
20260506203434 52 234 1.7 7.0 0.00 0.00 0.00 46 1012.0
20260506203312 52 253 3.5 7.0 0.00 0.00 0.00 46 1012.0
20260506203128 52 283 4.3 7.0 0.00 0.00 0.00 46 1012.0
20260506203006 52 253 4.3 7.0 0.00 0.00 0.00 47 1012.0
20260506202826 52 306 2.6 4.3 0.00 0.00 0.00 47 1011.9
20260506202702 52 325 2.6 4.3 0.00 0.00 0.00 47 1012.0
20260506202519 52 13 0.9 5.2 0.00 0.00 0.00 47 1012.0
20260506202357 51 343 0.9 6.1 0.00 0.00 0.00 47 1012.0
20260506202217 51 36 0.9 6.1 0.00 0.00 0.00 47 1012.0
20260506202056 51 31 1.7 6.1 0.00 0.00 0.00 47 1012.0
20260506201936 51 311 1.7 6.1 0.00 0.00 0.00 47 1012.0
20260506201814 51 289 3.5 6.1 0.00 0.00 0.00 47 1012.0
20260506201656 51 288 3.5 8.7 0.00 0.00 0.00 48 1012.1
20260506201533 51 294 1.7 8.7 0.00 0.00 0.00 47 1012.0
20260506201411 51 331 2.6 8.7 0.00 0.00 0.00 47 1011.9
20260506201248 51 297 3.5 8.7 0.00 0.00 0.00 46 1012.0
20260506201126 51 345 2.6 8.7 0.00 0.00 0.00 46 1012.0
20260506201008 51 321 4.3 8.7 0.00 0.00 0.00 46 1012.0
20260506200825 51 302 4.3 7.8 0.00 0.00 0.00 46 1012.0
20260506200705 51 317 3.5 8.7 0.00 0.00 0.00 47 1012.0
20260506200543 51 335 4.3 8.7 0.00 0.00 0.00 47 1012.0
20260506200424 51 297 4.3 8.7 0.00 0.00 0.00 48 1011.9
20260506200304 51 306 3.5 9.6 0.00 0.00 0.00 48 1011.9
20260506200121 51 286 3.5 13.0 0.00 0.00 0.00 47 1011.9
20260506200000 51 309 5.2 13.0 0.00 0.00 0.00 47 1012.0
20260506195842 51 301 5.2 13.0 0.00 0.00 0.00 47 1012.0
20260506195719 51 298 6.1 13.0 0.00 0.00 0.00 47 1012.1
20260506195600 51 326 6.1 13.0 0.00 0.00 0.00 47 1012.0
20260506195438 51 281 7.8 13.0 0.00 0.00 0.00 47 1012.0
20260506195318 51 300 6.1 12.2 0.00 0.00 0.00 47 1012.1
20260506195159 51 278 2.6 11.3 0.00 0.00 0.00 46 1012.2
20260506195038 51 289 3.5 11.3 0.00 0.00 0.00 46 1012.2
20260506194916 51 306 2.6 11.3 0.00 0.00 0.00 46 1012.2
20260506194756 51 305 4.3 11.3 0.00 0.00 0.00 46 1012.2
20260506194620 51 300 7.0 11.3 0.00 0.00 0.00 46 1012.2
20260506194435 51 309 8.7 11.3 0.00 0.00 0.00 45 1012.2
20260506194315 51 301 6.1 11.3 0.00 0.00 0.00 46 1012.2
20260506194153 51 309 5.2 11.3 0.00 0.00 0.00 45 1012.2
20260506194036 51 304 6.1 11.3 0.00 0.00 0.00 45 1012.2
20260506193914 51 292 7.8 11.3 0.00 0.00 0.00 45 1012.1
20260506193752 52 291 5.2 10.4 0.00 0.00 0.00 47 1012.1
20260506193610 51 302 3.5 7.8 0.00 0.00 0.00 46 1012.1
20260506193452 51 315 3.5 7.0 0.00 0.00 0.00 46 1012.1
20260506193329 51 310 2.6 7.8 0.00 0.00 0.00 47 1012.2
20260506193208 51 298 1.7 7.8 0.00 0.00 0.00 47 1012.2
20260506193024 51 301 2.6 7.8 0.00 0.00 0.00 46 1012.1
20260506192903 51 290 3.5 7.8 0.00 0.00 0.00 46 1012.2
20260506192745 51 306 5.2 7.8 0.00 0.00 0.00 46 1012.2
20260506192605 51 297 4.3 7.8 0.00 0.00 0.00 47 1012.2
20260506192446 51 248 3.5 6.1 0.00 0.00 0.00 47 1012.2
20260506192323 51 310 3.5 6.1 0.00 0.00 0.00 47 1012.2
20260506192206 51 304 1.7 5.2 0.00 0.00 0.00 48 1012.2
20260506192045 51 342 1.7 4.3 0.00 0.00 0.00 47 1012.3
20260506191922 51 302 2.6 4.3 0.00 0.00 0.00 47 1012.3
20260506191803 51 292 1.7 6.1 0.00 0.00 0.00 47 1012.3
20260506191628 51 135 0.9 6.1 0.00 0.00 0.00 46 1012.4
20260506191508 51 113 0.9 7.0 0.00 0.00 0.00 46 1012.3
20260506191324 51 344 0.0 7.0 0.00 0.00 0.00 47 1012.3
20260506191201 51 323 1.7 7.0 0.00 0.00 0.00 47 1012.3
20260506191027 51 325 3.5 7.8 0.00 0.00 0.00 47 1012.3
20260506190909 51 294 3.5 12.2 0.00 0.00 0.00 48 1012.3
20260506190748 51 325 4.3 12.2 0.00 0.00 0.00 47 1012.3
20260506190629 51 337 3.5 12.2 0.00 0.00 0.00 49 1012.4
20260506190433 51 294 3.5 12.2 0.00 0.00 0.00 47 1012.4
20260506190311 51 277 5.2 12.2 0.00 0.00 0.00 47 1012.4
20260506190150 51 5 6.1 12.2 0.00 0.00 0.00 46 1012.4
20260506190008 51 355 5.2 11.3 0.00 0.00 0.00 46 1012.4
20260506185849 51 261 4.3 13.9 0.00 0.00 0.00 47 1012.4
20260506185726 51 277 3.5 13.9 0.00 0.00 0.00 48 1012.4
20260506185604 50 311 4.3 13.9 0.00 0.00 0.00 47 1012.4
20260506185421 50 292 6.1 13.9 0.00 0.00 0.00 47 1012.4
20260506185257 50 292 8.7 13.9 0.00 0.00 0.00 46 1012.4
20260506185139 50 300 7.0 13.9 0.00 0.00 0.00 47 1012.4
20260506185018 50 306 4.3 9.6 0.00 0.00 0.00 47 1012.3
20260506184859 50 244 5.2 9.6 0.00 0.00 0.00 46 1012.2
20260506184740 50 295 6.1 9.6 0.00 0.00 0.00 46 1012.3
20260506184601 50 346 7.0 9.6 0.00 0.00 0.00 46 1012.3
20260506184438 50 302 5.2 9.6 0.00 0.00 0.00 47 1012.3
20260506184315 50 288 3.5 7.8 0.00 0.00 0.00 48 1012.3
20260506184153 50 317 3.5 7.8 0.00 0.00 0.00 48 1012.3
20260506184035 50 301 4.3 7.8 0.00 0.00 0.00 48 1012.3
20260506183912 50 329 3.5 7.8 0.00 0.00 0.00 49 1012.3
20260506183751 50 331 1.7 7.8 0.00 0.00 0.00 49 1012.3
20260506183630 50 321 2.6 7.8 0.00 0.00 0.00 49 1012.3
20260506183453 50 301 5.2 7.8 0.00 0.00 0.00 48 1012.3
20260506183330 50 306 5.2 7.8 0.00 0.00 0.00 48 1012.3
20260506183209 50 317 4.3 7.8 0.00 0.00 0.00 48 1012.3
20260506183047 50 302 5.2 7.8 0.00 0.00 0.00 49 1012.2
20260506182905 50 304 5.2 7.8 0.00 0.00 0.00 49 1012.3
20260506182746 50 292 5.2 7.8 0.00 0.00 0.00 48 1012.2
20260506182623 50 340 4.3 7.8 0.00 0.00 0.00 51 1012.3
20260506182503 50 13 3.5 10.4 0.00 0.00 0.00 51 1012.2
20260506182340 50 18 4.3 11.3 0.00 0.00 0.00 50 1012.2
20260506182221 50 320 3.5 11.3 0.00 0.00 0.00 49 1012.2
20260506182059 50 311 3.5 11.3 0.00 0.00 0.00 49 1012.2
20260506181937 50 282 3.5 11.3 0.00 0.00 0.00 48 1012.2
20260506181816 50 307 6.1 11.3 0.00 0.00 0.00 48 1012.2
20260506181637 50 298 7.8 11.3 0.00 0.00 0.00 48 1012.2
20260506181514 50 319 4.3 11.3 0.00 0.00 0.00 50 1012.2
20260506181355 50 17 0.9 7.8 0.00 0.00 0.00 50 1012.2
20260506181233 50 315 1.7 7.8 0.00 0.00 0.00 49 1012.1
20260506181049 50 355 3.5 7.8 0.00 0.00 0.00 49 1012.2
20260506180930 50 330 3.5 7.8 0.00 0.00 0.00 49 1012.2
20260506180807 50 5 5.2 9.6 0.00 0.00 0.00 48 1012.2
20260506180645 50 319 2.6 9.6 0.00 0.00 0.00 49 1012.3
20260506180502 50 303 0.9 9.6 0.00 0.00 0.00 49 1012.2
20260506180342 50 360 1.7 9.6 0.00 0.00 0.00 49 1012.2
20260506180220 50 329 2.6 9.6 0.00 0.00 0.00 49 1012.3
20260506180059 50 330 4.3 9.6 0.00 0.00 0.00 49 1012.3
20260506175919 50 336 5.2 9.6 0.00 0.00 0.00 50 1012.3
20260506175802 50 330 6.1 9.6 0.00 0.00 0.00 51 1012.3
20260506175639 50 309 4.3 9.6 0.00 0.00 0.00 51 1012.3
20260506175518 49 12 3.5 6.1 0.00 0.00 0.00 50 1012.3
20260506175356 50 298 4.3 6.1 0.00 0.00 0.00 50 1012.2
20260506175232 50 20 2.6 7.0 0.00 0.00 0.00 50 1012.3
20260506175114 50 15 1.7 8.7 0.00 0.00 0.00 49 1012.3
20260506174952 50 9 1.7 8.7 0.00 0.00 0.00 49 1012.3
20260506174830 50 10 1.7 8.7 0.00 0.00 0.00 49 1012.3
20260506174707 50 321 1.7 8.7 0.00 0.00 0.00 49 1012.4
20260506174548 50 261 3.5 8.7 0.00 0.00 0.00 49 1012.4
20260506174425 50 288 5.2 8.7 0.00 0.00 0.00 49 1012.4
20260506174303 50 290 4.3 8.7 0.00 0.00 0.00 50 1012.5
20260506174143 50 300 3.5 8.7 0.00 0.00 0.00 51 1012.5
20260506174025 50 254 5.2 8.7 0.00 0.00 0.00 49 1012.6
20260506173903 50 288 4.3 8.7 0.00 0.00 0.00 50 1012.6
20260506173743 50 315 4.3 7.8 0.00 0.00 0.00 52 1012.6
20260506173621 50 349 3.5 7.8 0.00 0.00 0.00 53 1012.6
20260506173446 50 333 1.7 8.7 0.00 0.00 0.00 53 1012.6
20260506173324 49 88 1.7 8.7 0.00 0.00 0.00 51 1012.6
20260506173203 49 67 3.5 8.7 0.00 0.00 0.00 51 1012.7
20260506173040 49 311 4.3 8.7 0.00 0.00 0.00 52 1012.7
20260506172919 49 330 3.5 8.7 0.00 0.00 0.00 52 1012.8
20260506172741 49 341 4.3 8.7 0.00 0.00 0.00 52 1012.8
20260506172618 49 341 4.3 10.4 0.00 0.00 0.00 53 1012.8
20260506172456 49 313 4.3 10.4 0.00 0.00 0.00 53 1012.8
20260506172333 49 337 5.2 10.4 0.00 0.00 0.00 53 1012.8
20260506172216 49 336 6.1 11.3 0.00 0.00 0.00 53 1012.8
20260506172053 49 360 4.3 11.3 0.00 0.00 0.00 53 1012.9
20260506171931 49 283 6.1 11.3 0.00 0.00 0.00 51 1012.8
20260506171809 49 315 4.3 11.3 0.00 0.00 0.00 52 1012.9
20260506171650 49 306 5.2 11.3 0.00 0.00 0.00 52 1012.8
20260506171528 49 301 4.3 11.3 0.00 0.00 0.00 51 1012.7
20260506171345 49 335 1.7 10.4 0.00 0.00 0.00 51 1012.7
20260506171224 49 325 5.2 10.4 0.00 0.00 0.00 51 1012.7
20260506171048 49 315 7.0 13.9 0.00 0.00 0.00 51 1012.8
20260506170925 49 318 6.1 13.9 0.00 0.00 0.00 51 1012.7
20260506170805 49 309 6.1 13.9 0.00 0.00 0.00 51 1012.7
20260506170642 49 355 7.0 13.9 0.00 0.00 0.00 51 1012.6
20260506170506 49 316 7.0 13.9 0.00 0.00 0.00 52 1012.6
20260506170344 49 346 7.8 13.9 0.00 0.00 0.00 51 1012.6
20260506170222 49 341 4.3 12.2 0.00 0.00 0.00 51 1012.5
20260506165927 49 347 3.5 12.2 0.00 0.00 0.00 50 1012.5
20260506165804 49 9 5.2 12.2 0.00 0.00 0.00 51 1012.6
20260506165642 49 360 7.0 12.2 0.00 0.00 0.00 53 1012.7
20260506165521 49 302 7.0 12.2 0.00 0.00 0.00 54 1012.6
20260506165345 49 269 5.2 12.2 0.00 0.00 0.00 54 1012.6
20260506165225 49 269 5.2 12.2 0.00 0.00 0.00 55 1012.6
20260506165104 49 302 6.1 12.2 0.00 0.00 0.00 55 1012.6
20260506164943 49 46 7.0 12.2 0.00 0.00 0.00 54 1012.6
20260506164820 49 306 5.2 10.4 0.00 0.00 0.00 56 1012.7
20260506164701 49 284 6.1 10.4 0.00 0.00 0.00 55 1012.7
20260506164541 49 309 7.8 10.4 0.00 0.00 0.00 54 1012.7
20260506164418 49 297 6.1 10.4 0.00 0.00 0.00 54 1012.7
20260506164256 49 273 4.3 10.4 0.00 0.00 0.00 52 1012.7
20260506164120 49 304 4.3 10.4 0.00 0.00 0.00 51 1012.7
20260506163957 49 321 6.1 10.4 0.00 0.00 0.00 52 1012.7
20260506163838 49 294 6.1 10.4 0.00 0.00 0.00 53 1012.7
20260506163717 49 290 5.2 10.4 0.00 0.00 0.00 55 1012.7
20260506163600 49 263 4.3 10.4 0.00 0.00 0.00 56 1012.7
20260506163438 49 309 4.3 10.4 0.00 0.00 0.00 57 1012.7
20260506163314 49 304 5.2 11.3 0.00 0.00 0.00 57 1012.6
20260506163155 49 316 6.1 12.2 0.00 0.00 0.00 56 1012.6
20260506163036 49 324 7.0 12.2 0.00 0.00 0.00 55 1012.6
20260506162916 49 299 6.1 12.2 0.00 0.00 0.00 57 1012.5
20260506162753 49 289 6.1 12.2 0.00 0.00 0.00 58 1012.5
20260506162608 49 279 6.1 12.2 0.00 0.00 0.00 56 1012.5
20260506162449 48 304 8.7 12.2 0.00 0.00 0.00 56 1012.5
20260506162331 48 289 7.8 12.2 0.00 0.00 0.00 57 1012.5
20260506162208 48 273 5.2 8.7 0.00 0.00 0.00 57 1012.5
20260506162046 48 333 4.3 10.4 0.00 0.00 0.00 57 1012.6
20260506161925 48 340 4.3 10.4 0.00 0.00 0.00 57 1012.6
20260506161750 48 5 4.3 10.4 0.00 0.00 0.00 57 1012.6
20260506161627 48 304 4.3 10.4 0.00 0.00 0.00 55 1012.6
20260506161444 48 286 4.3 10.4 0.00 0.00 0.00 56 1012.6
20260506161322 48 286 7.0 10.4 0.00 0.00 0.00 55 1012.7
20260506161204 48 315 6.1 10.4 0.00 0.00 0.00 56 1012.7
20260506161043 48 309 5.2 9.6 0.00 0.00 0.00 56 1012.6
20260506160859 48 298 5.2 9.6 0.00 0.00 0.00 57 1012.6
20260506160735 48 315 5.2 11.3 0.00 0.00 0.00 57 1012.7
20260506160617 48 304 4.3 11.3 0.00 0.00 0.00 58 1012.7
20260506160455 48 322 4.3 11.3 0.00 0.00 0.00 58 1012.7
20260506160333 48 294 5.2 11.3 0.00 0.00 0.00 58 1012.8
20260506160209 48 303 3.5 11.3 0.00 0.00 0.00 56 1012.7
20260506160047 48 346 6.1 11.3 0.00 0.00 0.00 56 1012.9
20260506155908 48 324 5.2 11.3 0.00 0.00 0.00 58 1013.0
20260506155745 48 336 4.3 10.4 0.00 0.00 0.00 58 1013.0
20260506155623 48 343 4.3 10.4 0.00 0.00 0.00 58 1012.9
20260506155500 48 315 3.5 10.4 0.00 0.00 0.00 59 1012.8
20260506155341 48 333 4.3 10.4 0.00 0.00 0.00 58 1012.8
20260506155220 48 338 3.5 10.4 0.00 0.00 0.00 58 1012.6
20260506155057 48 308 3.5 10.4 0.00 0.00 0.00 58 1012.6
20260506154935 48 333 4.3 10.4 0.00 0.00 0.00 58 1012.6
20260506154817 48 355 4.3 10.4 0.00 0.00 0.00 59 1012.6
20260506154655 48 76 4.3 10.4 0.00 0.00 0.00 59 1012.6
20260506154532 48 320 6.1 13.0 0.00 0.00 0.00 59 1012.6
20260506154349 48 343 5.2 13.0 0.00 0.00 0.00 60 1012.6
20260506154146 48 327 5.2 13.0 0.00 0.00 0.00 59 1012.6
20260506154029 48 341 5.2 13.0 0.00 0.00 0.00 60 1012.6
20260506153845 47 319 7.0 13.0 0.00 0.00 0.00 60 1012.5
20260506153722 48 316 5.2 11.3 0.00 0.00 0.00 60 1012.5
20260506153601 48 351 3.5 11.3 0.00 0.00 0.00 60 1012.5
20260506153444 48 290 5.2 11.3 0.00 0.00 0.00 60 1012.5
20260506153322 48 235 5.2 11.3 0.00 0.00 0.00 60 1012.4
20260506153159 48 322 7.8 11.3 0.00 0.00 0.00 59 1012.5
20260506153014 48 304 4.3 11.3 0.00 0.00 0.00 60 1012.4
20260506152834 48 298 2.6 11.3 0.00 0.00 0.00 60 1012.5
20260506152653 48 285 4.3 11.3 0.00 0.00 0.00 60 1012.5
20260506152532 48 342 6.1 11.3 0.00 0.00 0.00 61 1012.4
20260506152410 47 259 4.3 9.6 0.00 0.00 0.00 60 1012.4
20260506152245 47 294 4.3 9.6 0.00 0.00 0.00 60 1012.4
20260506152127 47 360 5.2 9.6 0.00 0.00 0.00 60 1012.4
20260506152005 47 330 5.2 9.6 0.00 0.00 0.00 60 1012.3
20260506151842 47 330 3.5 7.0 0.00 0.00 0.00 61 1012.3
20260506151718 47 300 3.5 10.4 0.00 0.00 0.00 60 1012.3
20260506151600 47 296 3.5 10.4 0.00 0.00 0.00 61 1012.3
20260506151439 47 288 2.6 10.4 0.00 0.00 0.00 61 1012.4
20260506151316 47 331 4.3 10.4 0.00 0.00 0.00 60 1012.4
20260506151132 47 337 5.2 10.4 0.00 0.00 0.00 59 1012.4
20260506150956 47 301 6.1 10.4 0.00 0.00 0.00 59 1012.4
20260506150834 47 321 7.8 10.4 0.00 0.00 0.00 60 1012.3
20260506150715 47 326 6.1 10.4 0.00 0.00 0.00 61 1012.3
20260506150553 47 333 5.2 11.3 0.00 0.00 0.00 61 1012.3
20260506150435 47 5 5.2 11.3 0.00 0.00 0.00 61 1012.3
20260506150311 47 20 5.2 11.3 0.00 0.00 0.00 61 1012.4
20260506150149 47 311 5.2 11.3 0.00 0.00 0.00 61 1012.5
20260506150028 47 344 7.0 11.3 0.00 0.00 0.00 61 1012.4
20260506145844 47 284 7.0 11.3 0.00 0.00 0.00 61 1012.4
20260506145726 47 324 3.5 9.6 0.00 0.00 0.00 62 1012.3
20260506145606 47 344 3.5 9.6 0.00 0.00 0.00 62 1012.3
20260506145444 47 342 4.3 9.6 0.00 0.00 0.00 63 1012.3
20260506145322 47 291 3.5 9.6 0.00 0.00 0.00 63 1012.3
20260506145203 47 304 5.2 9.6 0.00 0.00 0.00 62 1012.3
20260506145024 47 313 7.0 9.6 0.00 0.00 0.00 62 1012.3
20260506144903 47 292 7.0 9.6 0.00 0.00 0.00 62 1012.3
20260506144741 47 339 5.2 8.7 0.00 0.00 0.00 63 1012.3
20260506144621 46 314 4.3 8.7 0.00 0.00 0.00 63 1012.3
20260506144456 46 294 6.1 8.7 0.00 0.00 0.00 63 1012.2
20260506144334 46 296 5.2 8.7 0.00 0.00 0.00 64 1012.1
20260506144212 46 323 3.5 7.0 0.00 0.00 0.00 63 1012.2
20260506144050 46 297 5.2 7.0 0.00 0.00 0.00 63 1012.2
20260506143930 46 294 5.2 7.0 0.00 0.00 0.00 64 1012.3
20260506143807 46 293 3.5 7.8 0.00 0.00 0.00 66 1012.3
20260506143645 46 304 2.6 7.8 0.00 0.00 0.00 66 1012.3
20260506143521 46 284 3.5 7.8 0.00 0.00 0.00 66 1012.2
20260506143346 46 294 2.6 7.8 0.00 0.00 0.00 67 1012.2
20260506143225 46 311 0.9 7.8 0.00 0.00 0.00 66 1012.1
20260506143103 46 325 4.3 7.8 0.00 0.00 0.00 66 1012.0
20260506142918 46 327 4.3 7.0 0.00 0.00 0.00 66 1011.9
20260506142801 46 26 4.3 7.0 0.00 0.00 0.00 66 1011.9
20260506142642 46 30 2.6 4.3 0.00 0.00 0.00 66 1011.9
20260506142457 46 56 0.9 6.1 0.00 0.00 0.00 68 1011.9
20260506142334 45 94 1.7 6.1 0.00 0.00 0.00 67 1011.9
20260506142215 45 61 1.7 6.1 0.00 0.00 0.00 68 1011.9
20260506142056 45 302 1.7 6.1 0.00 0.00 0.00 68 1011.9
20260506141938 45 317 1.7 6.1 0.00 0.00 0.00 69 1011.9
20260506141816 45 12 3.5 6.1 0.00 0.00 0.00 69 1011.8
20260506141640 45 318 1.7 7.0 0.00 0.00 0.00 69 1011.8
20260506141517 44 63 1.7 7.0 0.00 0.00 0.00 69 1011.8
20260506141354 44 73 2.6 7.0 0.00 0.00 0.00 69 1011.9
20260506141233 44 349 4.3 7.0 0.00 0.00 0.00 69 1011.9
20260506141111 45 24 4.3 7.0 0.00 0.00 0.00 70 1011.9
20260506140933 44 42 2.6 7.0 0.00 0.00 0.00 70 1011.9
20260506140810 44 360 1.7 6.1 0.00 0.00 0.00 70 1011.8
20260506140648 44 20 3.5 6.1 0.00 0.00 0.00 70 1011.8
20260506140528 44 63 3.5 7.0 0.00 0.00 0.00 70 1011.8
20260506140409 44 63 4.3 7.0 0.00 0.00 0.00 70 1011.8
20260506140247 44 30 1.7 6.1 0.00 0.00 0.00 71 1011.8
20260506140126 44 327 1.7 6.1 0.00 0.00 0.00 71 1011.7
20260506140006 44 5 2.6 6.1 0.00 0.00 0.00 72 1011.7
20260506135847 44 5 3.5 7.8 0.00 0.00 0.00 72 1011.7
20260506135702 44 326 2.6 9.6 0.00 0.00 0.00 72 1011.7
20260506135543 44 15 2.6 9.6 0.00 0.00 0.00 71 1011.7
20260506135421 44 29 3.5 9.6 0.00 0.00 0.00 71 1011.7
20260506135301 44 63 4.3 9.6 0.00 0.00 0.00 72 1011.7
20260506135123 44 74 6.1 9.6 0.00 0.00 0.00 72 1011.7
20260506134939 44 23 5.2 9.6 0.00 0.00 0.00 72 1011.7
20260506134758 43 355 5.2 7.0 0.00 0.00 0.00 72 1011.6
20260506134614 44 337 3.5 8.7 0.00 0.00 0.00 72 1011.6
20260506134455 44 28 3.5 8.7 0.00 0.00 0.00 72 1011.6
20260506134335 44 42 3.5 8.7 0.00 0.00 0.00 73 1011.7
20260506134154 44 20 3.5 8.7 0.00 0.00 0.00 73 1011.7
20260506134035 44 43 2.6 8.7 0.00 0.00 0.00 74 1011.7
20260506133856 44 5 2.6 8.7 0.00 0.00 0.00 74 1011.7
20260506133736 43 9 4.3 8.7 0.00 0.00 0.00 73 1011.7
20260506133613 43 53 5.2 8.7 0.00 0.00 0.00 73 1011.7
20260506133454 44 39 5.2 8.7 0.00 0.00 0.00 73 1011.7
20260506133258 44 340 5.2 9.6 0.00 0.00 0.00 73 1011.7
20260506133138 44 355 1.7 11.3 0.00 0.00 0.00 74 1011.7
20260506133016 44 341 3.5 11.3 0.00 0.00 0.00 74 1011.7
20260506132854 44 355 4.3 11.3 0.00 0.00 0.00 74 1011.7
20260506132732 44 14 3.5 11.3 0.00 0.00 0.00 74 1011.6
20260506132615 44 32 5.2 11.3 0.00 0.00 0.00 74 1011.6
20260506132452 44 333 7.8 11.3 0.00 0.00 0.00 74 1011.5
20260506132331 44 355 5.2 10.4 0.00 0.00 0.00 74 1011.5
20260506132209 44 360 6.1 9.6 0.00 0.00 0.00 73 1011.5
20260506132052 45 22 6.1 9.6 0.00 0.00 0.00 73 1011.5
20260506131931 45 329 5.2 8.7 0.00 0.00 0.00 73 1011.4
20260506131809 45 355 3.5 8.7 0.00 0.00 0.00 73 1011.4
20260506131628 45 355 3.5 8.7 0.00 0.00 0.00 73 1011.4
20260506131511 45 5 5.2 8.7 0.00 0.00 0.00 73 1011.3
20260506131349 45 15 5.2 8.7 0.00 0.00 0.00 72 1011.3
20260506131225 45 329 5.2 8.7 0.00 0.00 0.00 72 1011.3
20260506131103 45 44 2.6 8.7 0.00 0.00 0.00 72 1011.3
20260506130943 45 5 1.7 8.7 0.00 0.00 0.00 72 1011.2
20260506130826 45 339 3.5 9.6 0.00 0.00 0.00 72 1011.3
20260506130703 45 328 3.5 9.6 0.00 0.00 0.00 72 1011.2
20260506130540 44 316 5.2 9.6 0.00 0.00 0.00 71 1011.1
20260506130418 45 17 6.1 9.6 0.00 0.00 0.00 71 1011.2
20260506130300 45 42 6.1 9.6 0.00 0.00 0.00 71 1011.2
20260506130138 45 15 5.2 9.6 0.00 0.00 0.00 71 1011.2
20260506130018 45 40 5.2 8.7 0.00 0.00 0.00 72 1011.1
20260506125856 45 327 5.2 8.7 0.00 0.00 0.00 72 1011.1
20260506125737 45 11 4.3 8.7 0.00 0.00 0.00 72 1011.1
20260506125615 45 314 3.5 10.4 0.00 0.00 0.00 72 1011.0
20260506125454 45 333 2.6 10.4 0.00 0.00 0.00 73 1011.1
20260506125330 45 355 4.3 10.4 0.00 0.00 0.00 73 1011.1
20260506125147 45 344 4.3 10.4 0.00 0.00 0.00 73 1011.0
20260506125027 45 355 5.2 11.3 0.00 0.00 0.00 72 1011.1
20260506124909 45 26 6.1 11.3 0.00 0.00 0.00 72 1011.1
20260506124748 45 31 4.3 11.3 0.00 0.00 0.00 72 1011.0
20260506124625 45 45 5.2 11.3 0.00 0.00 0.00 72 1011.0
20260506124506 45 346 5.2 11.3 0.00 0.00 0.00 72 1011.0
20260506124344 45 360 6.1 11.3 0.00 0.00 0.00 72 1010.9
20260506124221 45 329 4.3 8.7 0.00 0.00 0.00 72 1010.9
20260506124037 45 335 4.3 8.7 0.00 0.00 0.00 72 1010.9
20260506123857 45 27 4.3 8.7 0.00 0.00 0.00 72 1010.8
20260506123736 45 344 3.5 8.7 0.00 0.00 0.00 71 1010.9
20260506123615 45 355 3.5 8.7 0.00 0.00 0.00 71 1010.9
20260506123452 45 303 4.3 8.7 0.00 0.00 0.00 71 1010.8
20260506123329 45 343 5.2 8.7 0.00 0.00 0.00 71 1010.9
20260506123211 45 355 5.2 7.0 0.00 0.00 0.00 71 1010.8
20260506123049 45 342 4.3 7.0 0.00 0.00 0.00 71 1010.8
20260506122925 45 298 4.3 7.0 0.00 0.00 0.00 71 1010.7
20260506122804 45 329 3.5 7.0 0.00 0.00 0.00 71 1010.7
20260506122646 44 346 3.5 7.0 0.00 0.00 0.00 70 1010.6
20260506122523 44 343 2.6 7.0 0.00 0.00 0.00 70 1010.4
20260506122404 44 327 3.5 7.8 0.00 0.00 0.00 69 1010.5
20260506122240 44 5 4.3 7.8 0.00 0.00 0.00 69 1010.5
20260506122121 44 290 3.5 7.8 0.00 0.00 0.00 68 1010.6
20260506121959 44 319 4.3 7.8 0.00 0.00 0.00 68 1010.6
20260506121835 44 309 3.5 7.8 0.00 0.00 0.00 68 1010.5
20260506121713 44 315 4.3 7.8 0.00 0.00 0.00 68 1010.5
20260506121551 44 316 4.3 7.8 0.00 0.00 0.00 68 1010.5
20260506121433 44 342 4.3 7.8 0.00 0.00 0.00 68 1010.4
20260506121312 44 294 3.5 6.1 0.00 0.00 0.00 67 1010.4
20260506121151 44 293 2.6 6.1 0.00 0.00 0.00 68 1010.4
20260506121029 44 319 3.5 6.1 0.00 0.00 0.00 67 1010.4
20260506120910 44 298 3.5 6.1 0.00 0.00 0.00 67 1010.4
20260506120749 44 265 2.6 6.1 0.00 0.00 0.00 68 1010.4
20260506120606 44 338 2.6 6.1 0.00 0.00 0.00 68 1010.4
20260506120443 44 344 2.6 6.1 0.00 0.00 0.00 68 1010.4
20260506120307 43 337 2.6 6.1 0.00 0.00 0.00 68 1010.5
20260506120145 43 275 2.6 6.1 0.00 0.00 0.00 68 1010.5
20260506120022 43 315 3.5 6.1 0.00 0.00 0.00 68 1010.4
20260506115901 43 315 3.5 6.1 0.00 0.00 0.00 68 1010.3
20260506115744 43 292 3.5 5.2 0.00 0.00 0.00 68 1010.3
20260506115620 43 333 2.6 5.2 0.00 0.00 0.00 69 1010.3
20260506115458 43 315 2.6 5.2 0.00 0.00 0.00 68 1010.3
20260506115336 43 304 1.7 5.2 0.00 0.00 0.00 68 1010.2
20260506115151 43 320 3.5 6.1 0.00 0.00 0.00 68 1010.2
20260506115033 43 295 3.5 6.1 0.00 0.00 0.00 69 1010.1
20260506114852 43 294 1.7 6.1 0.00 0.00 0.00 69 1010.2
20260506114729 43 329 1.7 6.1 0.00 0.00 0.00 69 1010.2
20260506114606 43 292 3.5 6.1 0.00 0.00 0.00 69 1010.2
20260506114447 43 324 3.5 6.1 0.00 0.00 0.00 69 1010.1
20260506114328 43 307 1.7 5.2 0.00 0.00 0.00 69 1010.1
20260506114207 43 306 1.7 5.2 0.00 0.00 0.00 70 1010.1
20260506114024 43 307 2.6 5.2 0.00 0.00 0.00 70 1010.2
20260506113906 43 301 1.7 5.2 0.00 0.00 0.00 70 1010.1
20260506113744 42 300 1.7 5.2 0.00 0.00 0.00 70 1010.2
20260506113625 42 315 2.6 5.2 0.00 0.00 0.00 70 1010.2
20260506113503 42 313 1.7 5.2 0.00 0.00 0.00 70 1010.2
20260506113306 42 288 3.5 5.2 0.00 0.00 0.00 70 1010.1
20260506113144 42 296 3.5 5.2 0.00 0.00 0.00 70 1010.1
20260506113025 42 302 3.5 5.2 0.00 0.00 0.00 71 1010.0
20260506112904 42 285 2.6 5.2 0.00 0.00 0.00 71 1010.0
20260506112742 42 264 2.6 5.2 0.00 0.00 0.00 70 1009.9
20260506112624 42 280 1.7 4.3 0.00 0.00 0.00 71 1009.9
20260506112504 42 284 2.6 4.3 0.00 0.00 0.00 71 1009.9
20260506112343 42 292 2.6 4.3 0.00 0.00 0.00 71 1009.8
20260506112222 42 313 1.7 4.3 0.00 0.00 0.00 71 1009.8
20260506112103 42 306 1.7 3.5 0.00 0.00 0.00 71 1009.8
20260506111920 42 309 0.9 3.5 0.00 0.00 0.00 71 1009.9
20260506111759 42 295 0.0 0.0 0.00 0.00 0.00 71 1009.8
20260506111641 42 292 0.0 1.7 0.00 0.00 0.00 71 1009.8
20260506111506 42 292 0.0 1.7 0.00 0.00 0.00 71 1009.8
20260506111346 42 292 0.0 1.7 0.00 0.00 0.00 71 1009.8
20260506111203 42 292 0.0 1.7 0.00 0.00 0.00 71 1009.8
20260506111042 42 292 0.0 1.7 0.00 0.00 0.00 70 1009.9
20260506110923 42 292 0.0 1.7 0.00 0.00 0.00 70 1010.0
20260506110802 42 292 0.0 1.7 0.00 0.00 0.00 70 1009.9
20260506110642 42 292 0.0 0.9 0.00 0.00 0.00 70 1009.9
20260506110522 42 292 0.0 0.0 0.00 0.00 0.00 70 1009.8
20260506110401 42 292 0.0 0.0 0.00 0.00 0.00 70 1009.8
20260506110243 42 292 0.0 0.0 0.00 0.00 0.00 70 1009.8
20260506110122 42 292 0.0 0.0 0.00 0.00 0.00 70 1009.7
20260506110004 42 292 0.0 0.0 0.00 0.00 0.00 70 1009.8
20260506105841 42 292 0.0 0.0 0.00 0.00 0.00 70 1009.8
20260506105723 42 292 0.0 0.0 0.00 0.00 0.00 70 1009.7
20260506105602 42 292 0.0 0.0 0.00 0.00 0.00 70 1009.7
20260506105442 42 292 0.0 0.0 0.00 0.00 0.00 70 1009.7
20260506105322 42 292 0.0 0.0 0.00 0.00 0.00 70 1009.6
20260506105142 42 292 0.0 0.0 0.00 0.00 0.00 70 1009.6
20260506105001 42 292 0.0 0.0 0.00 0.00 0.00 70 1009.6
20260506104841 42 292 0.0 0.0 0.00 0.00 0.00 69 1009.6
20260506104718 42 292 0.0 0.0 0.00 0.00 0.00 69 1009.5
20260506104557 42 292 0.0 0.0 0.00 0.00 0.00 68 1009.5
20260506104438 42 292 0.0 0.0 0.00 0.00 0.00 68 1009.5
20260506104319 42 292 0.0 0.0 0.00 0.00 0.00 68 1009.5
20260506104157 42 292 0.0 0.0 0.00 0.00 0.00 68 1009.5
20260506104034 42 292 0.0 0.0 0.00 0.00 0.00 68 1009.4
20260506103859 42 292 0.0 0.0 0.00 0.00 0.00 68 1009.4
20260506103738 43 292 0.0 0.0 0.00 0.00 0.00 68 1009.4
20260506103618 43 292 0.0 0.0 0.00 0.00 0.00 68 1009.4
20260506103434 43 292 0.0 0.0 0.00 0.00 0.00 68 1009.4
20260506103316 43 292 0.0 0.0 0.00 0.00 0.00 67 1009.4
20260506103156 43 292 0.0 0.9 0.00 0.00 0.00 68 1009.3
20260506103035 43 292 0.0 1.7 0.00 0.00 0.00 67 1009.2
20260506102855 43 292 0.0 1.7 0.00 0.00 0.00 67 1009.3
20260506102738 43 292 0.0 1.7 0.00 0.00 0.00 67 1009.4
20260506102617 43 292 0.0 1.7 0.00 0.00 0.00 67 1009.4
20260506102453 43 292 0.0 1.7 0.00 0.00 0.00 67 1009.4
20260506102310 43 292 0.0 1.7 0.00 0.00 0.00 67 1009.3
20260506102128 43 291 0.0 0.0 0.00 0.00 0.00 67 1009.2
20260506102010 43 291 0.0 0.0 0.00 0.00 0.00 66 1009.2
20260506101850 43 291 0.0 0.9 0.00 0.00 0.00 66 1009.2
20260506101729 43 291 0.0 0.9 0.00 0.00 0.00 66 1009.3
20260506101607 43 291 0.0 0.9 0.00 0.00 0.00 66 1009.3
20260506101428 43 291 0.0 1.7 0.00 0.00 0.00 66 1009.3
20260506101308 43 291 0.0 1.7 0.00 0.00 0.00 66 1009.3
20260506101125 44 291 0.0 1.7 0.00 0.00 0.00 65 1009.4
20260506101003 44 291 0.0 1.7 0.00 0.00 0.00 65 1009.3
20260506100826 44 291 0.0 1.7 0.00 0.00 0.00 65 1009.3
20260506100705 44 291 0.0 1.7 0.00 0.00 0.00 65 1009.3
20260506100545 44 300 0.0 1.7 0.00 0.00 0.00 65 1009.2
20260506100402 44 301 0.0 2.6 0.00 0.00 0.00 65 1009.2
20260506100242 44 301 0.0 3.5 0.00 0.00 0.00 65 1009.3
20260506100059 44 301 0.0 3.5 0.00 0.00 0.00 65 1009.2
20260506095936 44 301 0.0 3.5 0.00 0.00 0.00 64 1009.2
20260506095814 44 300 0.9 3.5 0.00 0.00 0.00 64 1009.2
20260506095633 44 300 0.9 3.5 0.00 0.00 0.00 64 1009.2
20260506095454 44 305 1.7 4.3 0.00 0.00 0.00 64 1009.2
20260506095310 44 272 0.9 4.3 0.00 0.00 0.00 64 1009.3
20260506095151 44 286 0.9 4.3 0.00 0.00 0.00 65 1009.3
20260506095028 44 286 1.7 4.3 0.00 0.00 0.00 64 1009.2
20260506094911 44 285 1.7 4.3 0.00 0.00 0.00 64 1009.1
20260506094749 44 298 1.7 4.3 0.00 0.00 0.00 64 1009.1
20260506094626 44 300 2.6 4.3 0.00 0.00 0.00 64 1009.0
20260506094504 44 290 2.6 3.5 0.00 0.00 0.00 64 1008.9
20260506094346 44 298 2.6 3.5 0.00 0.00 0.00 64 1008.9
20260506094227 44 296 1.7 3.5 0.00 0.00 0.00 64 1008.8
20260506094109 44 306 2.6 3.5 0.00 0.00 0.00 64 1008.8
20260506093946 45 312 2.6 3.5 0.00 0.00 0.00 64 1008.8
20260506093825 45 294 1.7 3.5 0.00 0.00 0.00 64 1008.9
20260506093707 45 302 1.7 3.5 0.00 0.00 0.00 64 1008.8
20260506093546 45 300 1.7 3.5 0.00 0.00 0.00 64 1008.8
20260506093425 45 308 1.7 3.5 0.00 0.00 0.00 64 1008.7
20260506093307 45 294 1.7 3.5 0.00 0.00 0.00 64 1008.6
20260506093150 45 299 1.7 3.5 0.00 0.00 0.00 65 1008.5
20260506093027 45 314 0.9 2.6 0.00 0.00 0.00 65 1008.5
20260506092905 45 323 0.9 2.6 0.00 0.00 0.00 65 1008.5
20260506092744 45 326 0.9 2.6 0.00 0.00 0.00 65 1008.5
20260506092609 45 314 0.0 3.5 0.00 0.00 0.00 64 1008.6
20260506092425 45 314 0.0 3.5 0.00 0.00 0.00 64 1008.6
20260506092306 45 313 0.9 3.5 0.00 0.00 0.00 64 1008.6
20260506092141 45 328 0.9 4.3 0.00 0.00 0.00 64 1008.5
20260506092006 45 317 0.9 4.3 0.00 0.00 0.00 64 1008.5
20260506091845 45 327 0.9 4.3 0.00 0.00 0.00 64 1008.4
20260506091722 45 315 0.0 4.3 0.00 0.00 0.00 64 1008.4
20260506091600 45 301 0.9 4.3 0.00 0.00 0.00 64 1008.4
20260506091440 45 301 1.7 4.3 0.00 0.00 0.00 63 1008.4
20260506091318 45 345 3.5 4.3 0.00 0.00 0.00 63 1008.6
20260506091154 45 309 2.6 4.3 0.00 0.00 0.00 64 1008.6
20260506091031 45 302 1.7 4.3 0.00 0.00 0.00 64 1008.7
20260506090912 45 307 0.9 4.3 0.00 0.00 0.00 64 1008.7
20260506090754 45 304 2.6 4.3 0.00 0.00 0.00 64 1008.7
20260506090632 45 294 2.6 4.3 0.00 0.00 0.00 64 1008.7
20260506090511 45 295 0.9 4.3 0.00 0.00 0.00 64 1008.7
20260506090327 45 303 0.9 6.1 0.00 0.00 0.00 64 1008.6
20260506090209 45 301 1.7 6.1 0.00 0.00 0.00 64 1008.6
20260506090048 45 298 1.7 6.1 0.00 0.00 0.00 63 1008.5
20260506085906 45 306 0.9 6.1 0.00 0.00 0.00 63 1008.4
20260506085745 45 321 1.7 6.1 0.00 0.00 0.00 63 1008.5
20260506085626 45 330 3.5 6.1 0.00 0.00 0.00 63 1008.5
20260506085502 45 292 4.3 6.1 0.00 0.00 0.00 63 1008.5
20260506085340 45 324 2.6 7.0 0.00 0.00 0.00 63 1008.6
20260506085157 45 342 1.7 7.0 0.00 0.00 0.00 63 1008.6
20260506085033 45 298 2.6 7.0 0.00 0.00 0.00 63 1008.6
20260506084915 45 304 2.6 7.0 0.00 0.00 0.00 63 1008.5
20260506084752 45 312 2.6 7.0 0.00 0.00 0.00 63 1008.5
20260506084629 45 305 3.5 7.0 0.00 0.00 0.00 63 1008.5
20260506084506 45 327 2.6 7.0 0.00 0.00 0.00 64 1008.5
20260506084347 45 304 2.6 5.2 0.00 0.00 0.00 64 1008.6
20260506084229 45 292 2.6 5.2 0.00 0.00 0.00 64 1008.5
20260506084109 45 300 1.7 4.3 0.00 0.00 0.00 64 1008.4
20260506083946 45 321 1.7 4.3 0.00 0.00 0.00 63 1008.4
20260506083828 45 335 2.6 4.3 0.00 0.00 0.00 63 1008.3
20260506083706 45 289 2.6 4.3 0.00 0.00 0.00 63 1008.4
20260506083543 45 322 1.7 4.3 0.00 0.00 0.00 64 1008.3
20260506083421 45 335 1.7 5.2 0.00 0.00 0.00 64 1008.3
20260506083300 45 306 1.7 5.2 0.00 0.00 0.00 64 1008.4
20260506083142 45 316 0.9 5.2 0.00 0.00 0.00 64 1008.4
20260506083020 45 311 1.7 5.2 0.00 0.00 0.00 63 1008.3
20260506082857 45 315 2.6 5.2 0.00 0.00 0.00 63 1008.3
20260506082736 45 308 2.6 6.1 0.00 0.00 0.00 63 1008.4
20260506082617 45 344 2.6 6.1 0.00 0.00 0.00 63 1008.5
20260506082455 45 325 2.6 6.1 0.00 0.00 0.00 64 1008.5
20260506082312 45 301 2.6 6.1 0.00 0.00 0.00 63 1008.5
20260506082151 45 323 2.6 6.1 0.00 0.00 0.00 64 1008.4
20260506082031 45 305 2.6 6.1 0.00 0.00 0.00 64 1008.4
20260506081908 45 327 2.6 6.1 0.00 0.00 0.00 64 1008.4
20260506081746 45 301 1.7 5.2 0.00 0.00 0.00 64 1008.4
20260506081623 45 321 2.6 5.2 0.00 0.00 0.00 63 1008.5
20260506081459 45 326 2.6 5.2 0.00 0.00 0.00 64 1008.5
20260506081340 45 317 1.7 4.3 0.00 0.00 0.00 64 1008.6
20260506081218 45 305 1.7 4.3 0.00 0.00 0.00 63 1008.6
20260506081056 45 306 2.6 4.3 0.00 0.00 0.00 63 1008.5
20260506080938 45 329 1.7 4.3 0.00 0.00 0.00 63 1008.5
20260506080819 45 290 1.7 4.3 0.00 0.00 0.00 63 1008.5
20260506080701 45 320 1.7 4.3 0.00 0.00 0.00 63 1008.5
20260506080542 45 288 2.6 4.3 0.00 0.00 0.00 63 1008.6
20260506080400 46 315 2.6 4.3 0.00 0.00 0.00 63 1008.6
20260506080243 46 303 2.6 4.3 0.00 0.00 0.00 63 1008.6
20260506080121 46 311 2.6 4.3 0.00 0.00 0.00 63 1008.5
20260506073431 46 298 1.7 4.3 0.00 0.00 0.00 62 1008.5
20260506073252 46 319 1.7 4.3 0.00 0.00 0.00 61 1008.5
20260506073130 46 305 1.7 4.3 0.00 0.00 0.00 61 1008.6
20260506073008 46 303 1.7 4.3 0.00 0.00 0.00 61 1008.5
20260506072846 46 300 2.6 4.3 0.00 0.00 0.00 61 1008.6
20260506072726 46 303 2.6 4.3 0.00 0.00 0.00 61 1008.5
20260506072548 46 298 1.7 4.3 0.00 0.00 0.00 61 1008.5
20260506072404 46 308 1.7 4.3 0.00 0.00 0.00 61 1008.5
20260506072241 46 304 2.6 5.2 0.00 0.00 0.00 61 1008.5
20260506072122 46 302 2.6 5.2 0.00 0.00 0.00 61 1008.5
20260506072004 46 310 1.7 5.2 0.00 0.00 0.00 61 1008.5
20260506071822 46 302 1.7 5.2 0.00 0.00 0.00 61 1008.4
20260506071659 46 323 2.6 5.2 0.00 0.00 0.00 61 1008.4
20260506071537 46 311 2.6 5.2 0.00 0.00 0.00 60 1008.4
20260506071419 46 313 2.6 5.2 0.00 0.00 0.00 61 1008.5
20260506071257 47 313 2.6 4.3 0.00 0.00 0.00 61 1008.5
20260506071137 47 279 1.7 4.3 0.00 0.00 0.00 61 1008.5
20260506071016 47 308 1.7 4.3 0.00 0.00 0.00 61 1008.5
20260506070853 47 314 1.7 4.3 0.00 0.00 0.00 61 1008.6
20260506070734 47 311 1.7 5.2 0.00 0.00 0.00 61 1008.5
20260506070610 47 311 1.7 5.2 0.00 0.00 0.00 61 1008.5
20260506070449 47 307 2.6 5.2 0.00 0.00 0.00 60 1008.5
20260506070329 47 296 1.7 5.2 0.00 0.00 0.00 61 1008.5
20260506070211 47 326 2.6 5.2 0.00 0.00 0.00 60 1008.4
20260506062449 47 300 2.6 4.3 0.00 0.00 0.00 60 1008.4
20260506062306 47 301 1.7 4.3 0.00 0.00 0.00 60 1008.4
20260506062145 47 309 0.9 5.2 0.00 0.00 0.00 60 1008.5
20260506062026 47 323 0.9 5.2 0.00 0.00 0.00 59 1008.5
20260506061907 47 304 1.7 5.2 0.00 0.00 0.00 59 1008.6
20260506061746 47 299 3.5 5.2 0.00 0.00 0.00 59 1008.6
20260506061626 47 298 2.6 5.2 0.00 0.00 0.00 59 1008.7
20260506061504 47 305 1.7 5.2 0.00 0.00 0.00 59 1008.7
20260506061345 47 290 2.6 5.2 0.00 0.00 0.00 59 1008.8
20260506061222 47 298 2.6 5.2 0.00 0.00 0.00 59 1008.8
20260506061101 47 323 3.5 5.2 0.00 0.00 0.00 59 1008.7
20260506060919 47 294 3.5 5.2 0.00 0.00 0.00 59 1008.7
20260506060743 47 301 2.6 6.1 0.00 0.00 0.00 60 1008.7
20260506060625 47 307 1.7 6.1 0.00 0.00 0.00 59 1008.7
20260506060503 47 312 2.6 6.1 0.00 0.00 0.00 59 1008.7
20260506060340 47 293 2.6 6.1 0.00 0.00 0.00 59 1008.7
20260506060201 47 306 2.6 6.1 0.00 0.00 0.00 59 1008.8
20260506060112 47 306 3.5 6.1 0.00 0.00 0.00 59 1008.9
20260506051355 47 306 1.7 4.3 0.00 0.00 0.00 60 1008.4
20260506051255 47 297 2.6 4.3 0.00 0.00 0.00 60 1008.4
20260506051140 48 285 2.6 4.3 0.00 0.00 0.00 60 1008.4
20260506051042 48 300 2.6 4.3 0.00 0.00 0.00 59 1008.4
20260506050923 48 287 2.6 4.3 0.00 0.00 0.00 59 1008.3
20260506050825 48 291 1.7 5.2 0.00 0.00 0.00 59 1008.3
20260506050727 48 284 0.9 5.2 0.00 0.00 0.00 59 1008.3
20260506050629 48 302 1.7 5.2 0.00 0.00 0.00 59 1008.4
20260506050530 48 296 1.7 5.2 0.00 0.00 0.00 59 1008.4
20260506050436 48 281 1.7 5.2 0.00 0.00 0.00 59 1008.4
20260506050358 48 292 1.7 5.2 0.00 0.00 0.00 59 1008.4
20260506050259 48 317 2.6 5.2 0.00 0.00 0.00 59 1008.4
20260506050120 48 300 2.6 6.1 0.00 0.00 0.00 59 1008.4
20260506045026 48 309 2.6 6.1 0.00 0.00 0.00 59 1008.6
20260506044929 48 284 3.5 7.0 0.00 0.00 0.00 59 1008.6
20260506044851 48 288 3.5 7.0 0.00 0.00 0.00 59 1008.6
20260506044732 48 278 2.6 7.0 0.00 0.00 0.00 59 1008.6
20260506044654 48 291 3.5 7.0 0.00 0.00 0.00 59 1008.5
20260506044536 48 279 3.5 7.0 0.00 0.00 0.00 59 1008.5
20260506044436 48 285 3.5 7.0 0.00 0.03 0.00 59 1008.5
20260506044322 48 285 4.3 7.0 0.00 0.03 0.00 59 1008.5
20260506044223 48 302 4.3 7.0 0.00 0.03 0.00 59 1008.5
20260506044145 48 284 3.5 7.0 0.00 0.03 0.00 59 1008.5
20260506044026 48 300 2.6 6.1 0.00 0.03 0.00 59 1008.6
20260506043929 48 292 2.6 6.1 0.00 0.03 0.00 59 1008.6
20260506043830 48 283 2.6 6.1 0.00 0.03 0.00 59 1008.6
20260506043731 48 262 2.6 6.1 0.00 0.03 0.00 59 1008.6
20260506043637 48 292 3.5 6.1 0.00 0.03 0.00 59 1008.6
20260506043559 48 287 3.5 5.2 0.00 0.03 0.00 59 1008.6
20260506043500 48 290 3.5 5.2 0.00 0.03 0.00 59 1008.6
20260506043341 48 263 3.5 5.2 0.00 0.03 0.00 59 1008.6
20260506043221 48 315 2.6 5.2 0.00 0.03 0.00 59 1008.6
20260506043123 48 313 2.6 5.2 0.00 0.03 0.00 59 1008.6
20260506043025 48 284 2.6 5.2 0.00 0.03 0.00 59 1008.6
20260506042930 48 285 2.6 5.2 0.00 0.03 0.00 59 1008.6
20260506042832 48 287 2.6 5.2 0.00 0.03 0.00 59 1008.5
20260506042734 48 294 3.5 5.2 0.00 0.03 0.00 59 1008.5
20260506042635 48 292 3.5 5.2 0.00 0.03 0.00 59 1008.5
20260506042537 48 281 1.7 4.3 0.00 0.03 0.00 59 1008.4
20260506042438 48 304 2.6 4.3 0.00 0.03 0.00 59 1008.4
20260506042324 48 286 2.6 5.2 0.00 0.03 0.00 59 1008.3
20260506042225 48 296 2.6 5.2 0.00 0.03 0.00 59 1008.3
20260506042128 48 286 1.7 5.2 0.00 0.03 0.00 59 1008.3
20260506042029 48 282 1.7 5.2 0.00 0.03 0.00 60 1008.3
20260506041931 48 302 1.7 5.2 0.00 0.03 0.00 60 1008.3
20260506041833 48 294 2.6 5.2 0.00 0.03 0.00 59 1008.3
20260506041755 48 290 2.6 5.2 0.00 0.03 0.00 59 1008.3
20260506041635 48 284 2.6 5.2 0.00 0.03 0.00 60 1008.3
20260506041522 48 293 1.7 5.2 0.00 0.03 0.00 59 1008.3
20260506041424 48 297 2.6 5.2 0.00 0.03 0.00 59 1008.4
20260506041325 48 309 3.5 6.1 0.00 0.03 0.00 59 1008.4
20260506041228 48 288 2.6 6.1 0.00 0.03 0.00 60 1008.3
20260506041130 48 292 2.6 6.1 0.00 0.03 0.00 59 1008.3
20260506041032 48 302 2.6 6.1 0.00 0.03 0.00 60 1008.3
20260506040959 48 293 1.7 6.1 0.00 0.03 0.00 59 1008.3
20260506040839 48 298 1.7 6.1 0.00 0.03 0.00 59 1008.3
20260506040722 48 296 2.6 6.1 0.00 0.03 0.00 59 1008.3
20260506040644 48 312 3.5 6.1 0.00 0.03 0.00 60 1008.3
20260506040525 48 302 2.6 6.1 0.00 0.03 0.00 60 1008.3
20260506040448 48 303 2.6 4.3 0.00 0.03 0.00 60 1008.3
20260506040327 48 293 2.6 4.3 0.00 0.03 0.00 60 1008.3
20260506040233 48 302 2.6 4.3 0.00 0.03 0.00 60 1008.3
20260506040135 48 294 2.6 4.3 0.00 0.03 0.00 60 1008.3
20260506040056 48 301 1.7 4.3 0.00 0.03 0.00 60 1008.3
20260506035959 48 293 0.9 4.3 0.00 0.03 0.00 60 1008.3
20260506035837 48 306 1.7 4.3 0.00 0.03 0.00 60 1008.3
20260506035716 48 298 1.7 4.3 0.00 0.03 0.00 60 1008.4
20260506035558 48 287 2.6 4.3 0.00 0.03 0.00 60 1008.4
20260506035418 48 290 1.7 4.3 0.00 0.03 0.00 60 1008.4
20260506035257 48 282 1.7 4.3 0.00 0.03 0.00 60 1008.4
20260506035136 48 302 2.6 4.3 0.00 0.03 0.00 60 1008.4
20260506035015 48 304 1.7 4.3 0.00 0.03 0.00 60 1008.3
20260506034856 48 309 0.9 3.5 0.00 0.03 0.00 60 1008.3
20260506034733 48 302 0.9 3.5 0.00 0.03 0.00 59 1008.3
20260506034611 48 308 1.7 3.5 0.00 0.03 0.00 60 1008.2
20260506034427 48 311 1.7 3.5 0.00 0.03 0.03 59 1008.3
20260506034308 48 277 1.7 3.5 0.00 0.03 0.03 59 1008.3
20260506034125 48 296 1.7 3.5 0.00 0.03 0.03 59 1008.3
20260506034002 48 288 0.9 3.5 0.00 0.03 0.03 59 1008.2
20260506033839 48 292 1.7 3.5 0.00 0.03 0.03 59 1008.3
20260506033720 48 298 1.7 3.5 0.00 0.03 0.03 59 1008.3
20260506033558 48 280 1.7 4.3 0.00 0.03 0.03 59 1008.4
20260506033434 48 284 1.7 4.3 0.00 0.03 0.03 59 1008.4
20260506033311 48 286 1.7 4.3 0.00 0.03 0.03 59 1008.4
20260506033148 49 290 2.6 4.3 0.00 0.03 0.03 59 1008.3
20260506033031 49 285 1.7 4.3 0.00 0.03 0.03 59 1008.4
20260506032912 49 275 1.7 4.3 0.00 0.03 0.03 59 1008.4
20260506032753 49 281 1.7 4.3 0.00 0.03 0.03 59 1008.4
20260506032632 49 287 0.0 3.5 0.00 0.03 0.03 59 1008.3
20260506032513 49 289 0.9 3.5 0.00 0.03 0.03 59 1008.3
20260506032351 49 286 0.9 3.5 0.00 0.03 0.03 59 1008.3
20260506032231 49 278 0.0 2.6 0.00 0.03 0.03 59 1008.3
20260506032113 49 278 0.0 2.6 0.00 0.03 0.03 59 1008.2
20260506031956 49 278 0.0 2.6 0.00 0.03 0.03 59 1008.2
20260506031833 49 278 0.0 3.5 0.00 0.03 0.03 59 1008.2
20260506031710 49 278 0.0 3.5 0.00 0.03 0.03 59 1008.3
20260506031526 49 278 0.9 3.5 0.00 0.03 0.03 59 1008.3
20260506031404 49 278 1.7 3.5 0.00 0.03 0.03 58 1008.3
20260506031245 49 296 1.7 3.5 0.00 0.03 0.03 58 1008.3
20260506031124 49 267 1.7 3.5 0.00 0.03 0.03 58 1008.4
20260506030940 49 283 1.7 4.3 0.00 0.03 0.03 58 1008.4
20260506030820 49 298 1.7 4.3 0.00 0.03 0.03 58 1008.4
20260506030703 49 295 1.7 4.3 0.00 0.03 0.03 58 1008.4
20260506030540 49 266 1.7 4.3 0.00 0.03 0.03 58 1008.3
20260506030418 49 293 1.7 4.3 0.00 0.03 0.03 58 1008.3
20260506030255 49 263 1.7 4.3 0.00 0.03 0.03 58 1008.3
20260506030138 49 273 2.6 4.3 0.00 0.03 0.03 58 1008.4
20260506030015 49 292 2.6 4.3 0.00 0.03 0.03 58 1008.5
20260506025852 49 281 1.7 4.3 0.00 0.03 0.03 58 1008.5
20260506025733 49 278 0.9 2.6 0.00 0.03 0.03 58 1008.5
20260506025613 49 280 0.9 2.6 0.00 0.03 0.03 58 1008.4
20260506025432 49 280 0.9 2.6 0.00 0.03 0.03 58 1008.4
20260506025312 49 280 0.0 2.6 0.00 0.03 0.03 58 1008.3
20260506025149 49 280 0.0 2.6 0.00 0.03 0.03 58 1008.3
20260506025030 49 280 0.9 2.6 0.00 0.03 0.03 58 1008.4
20260506024912 49 288 0.9 2.6 0.00 0.03 0.03 57 1008.4
20260506024752 49 285 0.0 3.5 0.00 0.03 0.03 57 1008.3
20260506024629 49 285 0.9 3.5 0.00 0.03 0.03 58 1008.3
20260506024509 49 284 0.9 3.5 0.00 0.03 0.03 57 1008.3
20260506024350 49 284 0.9 3.5 0.00 0.03 0.03 57 1008.3
20260506024227 49 260 0.0 3.5 0.00 0.03 0.03 57 1008.3
20260506024105 49 273 0.9 3.5 0.00 0.03 0.03 57 1008.3
20260506023946 49 280 0.9 3.5 0.00 0.03 0.03 57 1008.3
20260506023823 49 286 0.9 2.6 0.00 0.03 0.03 57 1008.2
20260506023644 49 282 0.9 2.6 0.00 0.03 0.03 57 1008.2
20260506023521 49 282 0.0 2.6 0.00 0.03 0.03 57 1008.2
20260506023359 49 257 0.0 2.6 0.00 0.03 0.03 57 1008.2
20260506023236 49 272 0.9 4.3 0.00 0.03 0.03 57 1008.3
20260506023055 49 271 0.9 4.3 0.00 0.03 0.03 56 1008.3
20260506022932 49 271 0.0 4.3 0.00 0.03 0.03 56 1008.3
20260506022751 49 271 0.9 4.3 0.00 0.03 0.03 56 1008.2
20260506022630 49 271 0.9 4.3 0.00 0.03 0.03 56 1008.3
20260506022512 49 281 1.7 4.3 0.00 0.03 0.03 56 1008.3
20260506022350 49 279 2.6 4.3 0.00 0.03 0.03 56 1008.3
20260506022229 49 267 0.9 4.3 0.00 0.03 0.03 56 1008.3
20260506022110 49 293 0.9 4.3 0.00 0.03 0.03 56 1008.3
20260506021950 49 264 1.7 4.3 0.00 0.03 0.03 56 1008.4
20260506021809 49 272 1.7 4.3 0.00 0.03 0.03 56 1008.3
20260506021649 49 296 2.6 4.3 0.00 0.03 0.03 55 1008.3
20260506021526 49 261 2.6 4.3 0.00 0.03 0.03 55 1008.3
20260506021404 49 284 2.6 4.3 0.00 0.03 0.03 55 1008.3
20260506021246 49 305 2.6 4.3 0.00 0.03 0.03 55 1008.2
20260506021124 49 286 2.6 4.3 0.00 0.03 0.03 55 1008.1
20260506021001 49 284 1.7 4.3 0.00 0.03 0.03 55 1008.1
20260506020840 49 266 0.0 3.5 0.00 0.03 0.03 55 1008.1
20260506020722 49 285 0.0 3.5 0.00 0.03 0.03 55 1008.1
20260506020601 49 285 0.0 4.3 0.00 0.03 0.03 55 1008.1
20260506020440 49 285 0.0 4.3 0.00 0.03 0.03 55 1008.0
20260506020319 49 286 0.9 4.3 0.00 0.03 0.03 55 1008.0
20260506020157 49 287 1.7 4.3 0.00 0.03 0.03 55 1008.1
20260506020038 49 285 0.9 4.3 0.00 0.03 0.03 55 1008.1
20260506015916 49 304 1.7 4.3 0.00 0.03 0.03 54 1008.1
20260506015732 49 296 0.9 4.3 0.00 0.03 0.03 54 1008.1
20260506015609 49 263 1.7 3.5 0.00 0.03 0.03 54 1008.1
20260506015450 49 271 1.7 3.5 0.00 0.03 0.03 54 1008.2
20260506015332 49 253 0.9 4.3 0.00 0.03 0.03 54 1008.4
20260506015211 49 262 0.9 4.3 0.00 0.03 0.03 54 1008.3
20260506015048 50 269 0.9 4.3 0.00 0.03 0.03 54 1008.2
20260506014931 50 274 0.9 5.2 0.00 0.03 0.03 54 1008.1
20260506014749 50 284 2.6 5.2 0.00 0.03 0.03 54 1008.1
20260506014629 50 271 1.7 5.2 0.00 0.03 0.03 54 1008.1
20260506014504 50 258 0.0 5.2 0.00 0.03 0.03 54 1008.1
20260506014342 50 258 1.7 5.2 0.00 0.03 0.03 54 1008.0
20260506014224 50 250 2.6 5.2 0.00 0.03 0.03 54 1008.1
20260506014103 50 299 2.6 4.3 0.00 0.03 0.03 53 1008.0
20260506013919 50 279 1.7 4.3 0.00 0.03 0.03 53 1008.0
20260506013756 50 269 2.6 4.3 0.00 0.03 0.03 53 1008.0
20260506013639 50 265 0.9 5.2 0.00 0.03 0.03 53 1007.9
20260506013456 50 286 0.9 5.2 0.00 0.03 0.03 53 1007.9
20260506013335 50 285 1.7 5.2 0.00 0.03 0.03 53 1007.8
20260506013213 50 281 0.9 5.2 0.00 0.03 0.03 53 1007.8
20260506013037 50 267 1.7 5.2 0.00 0.03 0.03 53 1007.8
20260506012858 50 286 2.6 5.2 0.00 0.03 0.03 52 1007.8
20260506012736 50 281 2.6 4.3 0.00 0.03 0.03 52 1007.8
20260506012414 50 281 0.9 3.5 0.00 0.03 0.03 52 1007.7
20260506012251 50 277 1.7 4.3 0.00 0.03 0.03 52 1007.7
20260506012129 50 288 1.7 5.2 0.00 0.03 0.03 52 1007.7
20260506012006 50 283 1.7 5.2 0.00 0.03 0.03 52 1007.6
20260506011843 50 275 0.9 5.2 0.00 0.03 0.03 52 1007.6
20260506011703 50 322 1.7 5.2 0.00 0.03 0.03 52 1007.7
20260506011544 50 290 2.6 5.2 0.00 0.03 0.03 52 1007.6
20260506011423 50 303 3.5 5.2 0.00 0.03 0.03 52 1007.6
20260506011241 50 279 3.5 5.2 0.00 0.03 0.03 52 1007.5
20260506011123 50 277 2.6 5.2 0.00 0.03 0.03 52 1007.6
20260506010941 50 251 0.9 5.2 0.00 0.03 0.03 52 1007.6
20260506010819 50 266 1.7 5.2 0.00 0.03 0.03 52 1007.6
20260506010657 50 271 1.7 5.2 0.00 0.03 0.03 52 1007.6
20260506010537 50 270 1.7 6.1 0.00 0.03 0.03 51 1007.6